www.pogodaiklimat.ru

Погода и климат >> Архив погоды >> Россия >> Эвенкия >> Большой Порог


ПОГОДА в Большом Пороге

  • Прогноз погоды в Большом Пороге
  • Монитор погоды в Большом Пороге

АРХИВ ПОГОДЫ в Большом Пороге

Время (UTC), дата Ветер
(напр.,м/с)
 
Видим.   Явления Облачность Т
(С)
Тd
(С)
f
(%)
Тe
(С)
Тes
(С)
Комфортность P
(гПа)
Po
(гПа)
Тmin
(С)
Tmax
(С)
R
(мм)
R24
(мм)
S
(см)
15 14.05 С 1 20 км 10/0
[Ac As Cs]
+3.4 -7.4 45 +3 +3 1019.1 1010.7
21 14.05 штиль 0 20 км ясно -4.5 -7.6 79 -5 -5 1019.2 1010.5
00 15.05 штиль 0 20 км ясно -2.2 -8.1 64 -3 0 1019.1 1010.6 -4.7 40
03 15.05 СВ 3 20 км 8/0
[Cc]
+0.7 -9.9 45 -3 -1 1020.5 1012.0
06 15.05 С 2 20 км 6/0
[Ci fib]
+2.2 -9.4 42 -0 +4 1019.1 1010.7
09 15.05 С 3 20 км 3/0
[Ci fib]
+4.0 -8.1 41 +1 +6 1019.1 1010.7
12 15.05 С 3 20 км 8/0
[Ac lent Ci fib]
+5.5 -7.4 39 +3 +4 1018.3 1009.9 +5.8
15 15.05 СЗ 1 20 км 3/0
[Ac lent Ci fib]
+3.7 -7.4 44 +3 +3 1019.1 1010.7
18 15.05 штиль 0 20 км ясно -1.2 -7.3 63 -2 -2 1019.2 1010.7
21 15.05 штиль 0 20 км ясно -4.5 -7.2 81 -5 -5 1019.6 1010.9
00 16.05 С 1 20 км ясно -0.2 -8.0 56 -2 +1 1020.2 1011.7 -6.0 39
09 16.05 В 1 20 км ясно +6.2 -6.1 41 +6 +15 опасность
простуды
1020.3 1012.0
12 16.05 ЮЗ 2 20 км 3/0
[Ci sp]
+6.5 -6.1 40 +5 +7 1019.7 1011.3 +6.9
15 16.05 штиль 0 20 км ясно +4.6 -6.6 44 +4 +4 1020.4 1012.0
21 16.05 штиль 0 20 км ясно -4.3 -8.5 72 -5 -5 1021.2 1012.5
00 17.05 СЗ 1 20 км 6/0
[Ci]
-2.6 -6.3 76 -5 -2 1021.0 1012.5 -4.8 36
03 17.05 С 2 20 км 4/0
[Ci fib]
+3.0 -4.2 59 +1 +5 1021.7 1013.3
06 17.05 СЗ 2 20 км 5/1
[Cu hum Ci fib]
+4.7 -6.1 45 +3 +12 опасность
простуды
1019.8 1011.4
09 17.05 штиль 0 20 км 9/9 600 м
[Cb cap]
+8.5 -5.7 36 +8 +9 1020.3 1012.0
12 17.05 В 1 20 км 9/9 600 м
[Cb cap]
+7.9 -5.4 38 +8 +8 1019.6 1011.4 +8.7
15 17.05 В 1 20 км 3/3 1000 м
[Sc diur, vesp]
+5.6 -6.0 43 +5 +5 1021.7 1013.3
06 18.05 ЮВ 3 20 км 6/6 1000 м
[Cu med, cong]
+9.6 -5.9 33 +8 +12 1018.9 1010.7
09 18.05 ЮВ 2
{10}
20 км 6/6 1000 м
[Cu med, cong]
+10.8 -5.2 32 +10 +13 1017.5 1009.3
12 18.05 В 3 20 км 4/4 1000 м
[Cu med, cong]
+10.1 -6.3 31 +9 +10 1015.9 1007.7 +11.1
15 18.05 В 1 20 км 4/1 1000 м
[Sc diur, vesp Ac trans Ci sp]
+8.2 -5.3 38 +8 +8 1016.2 1008.0
00 19.05 В 4 20 км 10/0
[Ac As]
+7.5 -3.6 45 +5 +5 1011.0 1002.9 +5.8 23
03 19.05 ЮВ 3 20 км 10 баллов +7.2 -1.2 55 +5 +5 1010.9 1002.7
06 19.05 В 2 20 км 10/10 600 м
[Cb cap]
+7.6 -0.6 56 +6 +6 1009.5 1001.3
09 19.05 ЮВ 1 20 км {ливн. осадки} 10/10 600 м
[Cb cap]
+7.8 +0.5 60 +7 +7 1009.5 1001.3
12 19.05 СВ 1 10 км слаб. ливневой дождь 10/10 600 м
[Cb cap]
+5.5 +2.0 78 +4 +4 1007.3 999.0 +8.0 1
15 19.05 СВ 1 10 км слаб. ливневой дождь 10/8 600 м
[Cb cap Ac As]
+5.3 +4.1 92 +4 +4 1006.9 998.7
21 19.05 С 3 20 км {ливн. осадки} 10/10 600 м
[Cb cap]
+5.0 +3.6 91 +1 +1 1000.7 992.5
00 20.05 С 5 20 км {ливн. осадки} 10/4 1000 м
[Sc Ac lent Ci fib]
+5.2 +3.8 91 +1 +1 999.6 991.4 +4.2 3 13
03 20.05 СВ 1 4000 м слаб. ливневой дождь 10/10 600 м
[Cb cap]
+4.9 +4.5 97 +3 +3 1000.2 992.0
06 20.05 В 2 20 км в посл. час ливневой дождь 10/10 600 м
[Cb cap]
+5.7 +5.0 95 +3 +3 1000.2 992.0
09 20.05 ЮВ 2 20 км 10 баллов +5.3 +3.6 89 +3 +3 1001.5 993.3
12 20.05 штиль 0 20 км 8/8 600 м
[Cb cap]
+6.6 +2.5 75 +6 +6 1000.9 992.7 +6.9 5
15 20.05 штиль 0 20 км 4/4 1000 м
[Sc diur, vesp]
+4.0 +0.5 78 +3 +3 1001.5 993.3
21 20.05 штиль 0 20 км ясно -1.9 -3.1 91 -3 -3 998.5 990.2
00 21.05 штиль 0 20 км 6/0
[Ac trans]
+0.8 -0.3 92 -0 +2 997.2 988.9 -2.8 9
03 21.05 штиль 0 10 км слаб. дождь 10 баллов +2.9 +1.3 89 +2 +2 996.2 988.0
06 21.05 ЮВ 3 10 км слаб. ливневой дождь 10 баллов +6.6 +3.2 79 +4 +4 996.1 988.0
09 21.05 ЮВ 1 20 км 10 баллов +7.9 +2.4 68 +7 +7 996.1 988.0
12 21.05 СВ 1 20 км {ливн. осадки} 9/9 600 м
[Cb cap]
+8.5 +1.1 60 +8 +8 994.2 986.2 +9.0 0.4

 

Местоположение метеостанции Большой Порог (Эвенкия, Россия): широта 65.63 долгота 90.05 высота над уровнем моря 67 м.

В архиве по умолчанию представлена погода в Большом Пороге за последнюю неделю. Архивные данные за месяц целиком и за предыдущие месяцы, начиная с января 2011 года, Вы можете получить, выбрав интересующий диапазон дат из раскрывающегося списка и нажав кнопку "Ввод!".


*Определитесь, кто Вы:
робот инопланетянин человек

Внимание! Время в таблицах - всемирное. Для получения местного времени необходимо прибавить поправку, которая равна 7 ч.

Смотрите также архив погоды в соседних городах и на ближайших метеорологических станциях:

Погода в Туруханске (Красноярский край, Россия) (98 км)
Погода в Курейке (Красноярский край, Россия) (158 км)
Погода в Светлогорске (Красноярский край, Россия) (164 км)
Погода в Верещагино (Красноярский край, Россия) (198 км)
Погода в Агате (Эвенкия, Россия) (207 км)
Погода в Горбиачине (Красноярский край, Россия) (228 км)
Погода в Тутончанах (Эвенкия, Россия) (237 км)
Погода в Игарке (Красноярский край, Россия) (256 км)
Погода в Снежногорске (Красноярский край, Россия) (292 км)
Погода в Верхнеимбатске (Красноярский край, Россия) (294 км)

Пояснения к столбцам:

Ветер - указаны скорость ветра в м/с - средняя за 10 мин, порывы в срок и между сроками (в фигурных скобках) и направление, откуда дует ветер: С - северный, СВ - северо-восточный, В - восточный, ЮВ - юго-восточный, Ю - южный, ЮЗ - юго-западный, З - западный, СЗ - северо-западный.
Видимость - горизонтальная дальность видимости в метрах или километрах. При видимости от 1 до 10 км при отсутствии осадков обычно наблюдается дымка, при ухудшении видимости до 1 км и менее - туман. В сухую погоду видимость может ухудшаться дымом, пылью или мглою.
Явления - указаны атмосферные явления, наблюдавшиеся в срок или в последний час перед сроком; фигурными скобками обозначены явления, наблюдавшиеся между сроками (за 1-3 часа до срока); квадратными скобками обозначены град или гололедные отложения с указанием их диаметра в мм.
Облачность - указаны через наклонную черту общая и нижняя облачность в баллах и высота нижней границы облаков в метрах; квадратными скобками обозначены формы облаков: Ci - перистые, Cs - перисто-слоистые, Cc - перисто-кучевые, Ac - высококучевые, As - высокослоистые, Sc - слоисто-кучевые, Ns - слоисто-дождевые, Cu - кучевые, Cb - кучево-дождевые. Подробнее классификацию облаков см. в Атласе облаков (PDF).
T - Температура воздуха - температура, измеренная на высоте 2 м над землей.
Td - Температура точки росы - температура, при понижении до которой содержащийся в воздухе водяной пар достигнет насыщения.
f - Относительная влажность воздуха - влажноcть воздуха, измеренная на высоте 2 м над землей.
Te - Эффективная температура - температура, которую ощущает одетый по сезону человек в тени. Характеристика душности погоды. При расчете учитывается влияние влажности воздуха и скорости ветра на теплоощущения человека.
Tes - Эффективная температура на солнце - температура, которую ощущает человек, с поправкой на солнечный нагрев. Характеристика знойности погоды. Зависит от высоты солнца над горизонтом, облачности и скорости ветра. Ночью, в пасмурную погоду, а также при ветре 12 м/с и более поправка равна нулю.
P - Атмосферное давление - приведенное к уровню моря атмосферное давление.
Po - Атмосферное давление - измеренное на уровне метеостанции атмосферное давление.
Tmin - Минимальная температура - минимум температуры воздуха на высоте 2 м над землей.
Tmax - Максимальная температура - максимум температуры воздуха на высоте 2 м над землей.
R - Количество осадков - Количество выпавших осадков за период времени, мм. При наведении курсора мыши на число - период времени, за который выпало указанное количество осадков.
R24 - Количество осадков - Количество выпавших осадков за 24 часа, мм.
S - Снежный покров - Высота снежного покрова, см. При наведении курсора мыши на число - состояние снежного покрова и степень покрытия местности в баллах.